Location: *
(46.1866°S, 178.5290°W)
Time: 13:01:01
(UTC+00:00)

Cosmos 1461 - Pass Details

Date: 03 October 2021
Orbit: 520 x 642 km, 65.0° (Epoch: 18 October)

Event Time Altitude Azimuth Distance (km) Brightness Sun altitude
Rises 14:30:16 0° 210° (SSW) 2,922 6.7 -27.5°
Reaches altitude 10° 14:32:55 10° 196° (SSW) 2,029 6.0 -27.2°
Maximum altitude 14:36:41 24° 141° (SE) 1,328 5.4 -26.7°
Drops below altitude 10° 14:40:30 10° 86° (E) 2,052 6.3 -26.1°
Sets 14:43:11 0° 72° (ENE) 2,962 7.0 -25.8°
